Weather reports worldwide

Advertisment
Navalmoral de la Mata, Spain (8254): temperature & dewpoint: 16.02.2019 22:00:00 - 22.02.2019 22:00:00 (CET)Navalmoral de la Mata, Spain (8254): wind speed & gusts: 16.02.2019 22:00:00 - 22.02.2019 22:00:00 (CET)Navalmoral de la Mata, Spain (8254): wind direction: 16.02.2019 22:00:00 - 22.02.2019 22:00:00 (CET)Navalmoral de la Mata, Spain (8254): reduced air pressure: 16.02.2019 22:00:00 - 22.02.2019 22:00:00 (CET)Navalmoral de la Mata, Spain (8254): visibility: 16.02.2019 22:00:00 - 22.02.2019 22:00:00 (CET)Navalmoral de la Mata, Spain (8254): sunshine duration: 16.02.2019 22:00:00 - 22.02.2019 22:00:00 (CET)Navalmoral de la Mata, Spain (8254): precipitation: 16.02.2019 22:00:00 - 22.02.2019 22:00:00 (CET)
Date & Time tt [°C] td [°C] ff [km/h] ff [kn] fx [km/h] fx [kn] dd ppp [hPa] vv [km] sd [min] rr [mm]
22.02.2019 22:00:00 - - - - - - - - - - -
22.02.2019 21:00:00 9,0 2,5 8 4 10 6 W 1030,1 20 0 0,0
22.02.2019 20:00:00 13,5 2,5 5 3 8 4 SSE 1029,3 20 0 0,0
22.02.2019 19:00:00 17,8 0,4 2 1 9 5 SSE 1028,5 20 29 -
22.02.2019 18:00:00 20,5 -0,7 5 3 13 7 E 1028,0 20 60 0,0
22.02.2019 17:00:00 20,8 -1,2 6 4 18 10 E 1028,2 20 60 0,0
22.02.2019 16:00:00 20,5 2,9 8 4 19 11 ESE 1028,4 20 60 0,0
22.02.2019 15:00:00 19,5 2,9 10 6 24 13 E 1028,9 20 60 0,0
22.02.2019 14:00:00 18,0 1,9 13 7 25 14 E 1029,8 20 60 0,0
22.02.2019 13:00:00 16,1 2,1 16 8 26 14 ESE 1030,9 20 60 -
22.02.2019 12:00:00 13,6 1,5 14 8 27 14 E 1031,8 20 60 0,0
22.02.2019 11:00:00 11,5 1,7 14 8 26 14 E 1032,2 19 60 0,0
22.02.2019 10:00:00 8,2 1,1 11 6 18 10 E 1032,8 20 60 0,0
22.02.2019 09:00:00 5,4 0,0 10 5 20 11 ENE 1032,7 20 31 0,0
22.02.2019 08:00:00 4,2 -0,5 11 6 17 9 ENE 1032,1 20 0 0,0
22.02.2019 07:00:00 3,6 0,0 9 5 14 8 ENE 1032,1 20 0 -
22.02.2019 06:00:00 4,4 0,4 9 5 14 8 ENE 1031,9 20 0 0,0
22.02.2019 05:00:00 4,8 0,4 8 4 17 9 ENE 1031,6 20 0 0,0
22.02.2019 04:00:00 4,7 0,9 10 6 14 7 NE 1031,7 20 0 0,0
22.02.2019 03:00:00 5,5 1,5 9 5 14 7 E 1031,4 20 0 0,0
22.02.2019 02:00:00 5,7 1,9 9 5 18 10 E 1031,1 20 0 0,0
22.02.2019 01:00:00 6,6 2,3 5 3 13 7 NE 1031,1 20 0 -
22.02.2019 00:00:00 7,3 2,9 10 5 13 7 NE 1030,5 20 0 0,0
21.02.2019 23:00:00 7,4 2,9 9 5 11 6 E 1030,4 20 0 0,0
21.02.2019 22:00:00 9,2 3,6 1 1 13 7 NW 1029,7 20 0 0,0
21.02.2019 21:00:00 12,0 3,4 9 5 13 7 SSE 1028,5 20 0 0,0
21.02.2019 20:00:00 13,4 2,9 5 3 12 6 ESE 1027,8 20 0 0,0
21.02.2019 19:00:00 15,9 2,7 6 3 12 6 NE 1026,6 20 13 -
21.02.2019 18:00:00 18,5 2,3 7 4 18 10 E 1025,9 20 60 0,0
21.02.2019 17:00:00 19,3 2,7 9 5 21 12 E 1025,8 20 60 0,0
21.02.2019 16:00:00 19,0 3,2 12 6 24 13 E 1026,0 20 60 0,0
21.02.2019 15:00:00 17,9 4,8 14 8 28 15 E 1026,1 20 60 0,0
21.02.2019 14:00:00 17,1 5,3 16 9 35 19 E 1026,7 19 60 0,0
21.02.2019 13:00:00 15,7 5,6 14 8 36 20 E 1027,4 19 60 -
21.02.2019 12:00:00 13,3 4,6 20 11 36 20 ESE 1028,0 17 60 0,0
21.02.2019 11:00:00 11,7 3,9 17 9 33 18 ESE 1028,0 19 60 0,0
21.02.2019 10:00:00 8,6 4,6 11 6 23 13 E 1028,1 19 60 0,0
21.02.2019 09:00:00 4,8 2,9 8 5 14 8 ENE 1027,9 14 20 0,0
21.02.2019 08:00:00 4,3 2,5 8 5 19 11 E 1027,2 12 0 0,0
21.02.2019 07:00:00 4,0 2,5 9 5 16 9 E 1026,8 12 0 -
21.02.2019 06:00:00 4,1 2,7 6 3 13 7 ENE 1026,8 12 0 0,0
21.02.2019 05:00:00 4,2 2,9 8 4 13 7 ENE 1026,6 9 0 0,0
21.02.2019 04:00:00 4,2 2,9 8 4 13 7 ENE 1026,7 11 0 0,0
21.02.2019 03:00:00 4,7 3,2 8 4 11 6 E 1026,5 13 0 0,0
21.02.2019 02:00:00 5,2 3,4 6 4 14 7 ENE 1026,4 14 0 0,0
21.02.2019 01:00:00 6,3 3,9 4 2 13 7 SSE 1026,1 18 0 -
21.02.2019 00:00:00 7,1 4,8 9 5 13 7 ENE 1025,7 20 0 0,0
20.02.2019 23:00:00 6,8 4,5 7 4 9 5 ENE 1025,5 19 0 0,0
20.02.2019 22:00:00 8,6 5,3 6 4 12 6 ESE 1025,0 20 0 0,0
20.02.2019 21:00:00 10,1 5,5 5 3 6 4 NE 1024,2 20 0 0,0
20.02.2019 20:00:00 11,4 5,8 4 2 8 4 ENE 1023,6 20 0 0,0
20.02.2019 19:00:00 14,8 5,8 0 0 8 4 N 1022,8 20 18 -
20.02.2019 18:00:00 17,2 5,5 3 2 10 6 SE 1022,2 20 60 0,0
20.02.2019 17:00:00 17,5 5,5 5 3 14 8 SE 1022,3 20 60 0,0
20.02.2019 16:00:00 17,1 7,1 5 3 17 9 ESE 1022,6 20 60 0,0
20.02.2019 15:00:00 15,8 7,3 8 4 18 10 E 1023,0 20 60 0,0
20.02.2019 14:00:00 15,0 7,0 9 5 19 10 E 1023,6 20 58 0,0
20.02.2019 13:00:00 13,1 6,4 7 4 21 12 E 1024,6 20 38 -
20.02.2019 12:00:00 11,3 6,1 13 7 22 12 E 1024,8 14 43 0,0
20.02.2019 11:00:00 8,5 6,1 16 9 27 14 E 1024,4 12 0 0,0
20.02.2019 10:00:00 7,4 5,3 9 5 16 9 E 1024,6 13 40 0,0
20.02.2019 09:00:00 5,0 4,1 5 3 11 6 E 1024,2 5 24 0,0
20.02.2019 08:00:00 4,4 3,6 7 4 12 7 E 1023,1 3,9 0 0,0
20.02.2019 07:00:00 4,7 3,8 9 5 14 7 E 1022,5 3,8 0 -
20.02.2019 06:00:00 5,2 4,3 8 5 12 7 ENE 1022,1 3,4 0 0,0
20.02.2019 05:00:00 5,4 4,5 7 4 13 7 ENE 1021,9 0,3 0 0,0
20.02.2019 04:00:00 5,6 4,3 4 2 9 5 S 1022,0 0,2 0 0,0
20.02.2019 03:00:00 7,3 6,1 4 2 7 4 SSE - - 0 0,0
20.02.2019 02:00:00 8,6 7,3 5 3 13 7 E 1021,6 3,7 0 0,0
20.02.2019 01:00:00 9,4 8,0 6 3 12 6 NNE 1021,6 10 0 -
20.02.2019 00:00:00 9,7 8,0 3 2 17 9 ENE 1021,4 6 0 0,4
19.02.2019 23:00:00 9,6 7,6 13 7 19 10 SW 1021,5 15 0 0,6
19.02.2019 22:00:00 10,2 7,8 1 1 11 6 NW 1021,0 17 0 0,0
19.02.2019 21:00:00 10,6 7,4 3 2 12 7 NW 1020,4 19 0 0,2
19.02.2019 20:00:00 10,6 7,4 5 3 7 4 W 1020,1 20 0 0,0
19.02.2019 19:00:00 12,3 7,8 1 1 8 4 N 1019,2 20 0 -
19.02.2019 18:00:00 13,3 7,7 5 3 10 5 NE 1018,6 20 1 0,0
19.02.2019 17:00:00 14,1 6,2 5 3 11 6 NE 1018,7 20 18 0,0
19.02.2019 16:00:00 13,9 6,2 5 3 14 8 NE 1019,0 20 3 0,0
19.02.2019 15:00:00 14,0 5,9 7 4 13 7 ENE 1019,4 20 12 0,0
19.02.2019 14:00:00 12,9 6,1 7 4 18 10 ESE 1020,1 20 0 0,0
19.02.2019 13:00:00 12,3 6,4 8 5 16 9 ESE 1020,9 19 1 -
19.02.2019 12:00:00 10,6 5,1 9 5 29 15 E 1021,4 20 44 0,0
19.02.2019 11:00:00 9,8 5,0 16 9 29 16 E 1021,6 19 22 0,0
19.02.2019 10:00:00 6,5 4,1 5 3 14 7 E 1021,8 16 8 0,0
19.02.2019 09:00:00 4,3 3,0 7 4 15 8 ENE 1021,5 12 3 0,0
19.02.2019 08:00:00 3,7 2,7 7 4 10 5 E 1020,6 6 0 0,0
19.02.2019 07:00:00 3,4 2,3 4 2 13 7 NNE 1020,8 6 0 -
19.02.2019 06:00:00 3,1 2,1 6 4 14 7 ESE 1020,4 6 0 0,0
19.02.2019 05:00:00 2,7 1,7 4 2 10 6 NNE 1020,8 2,8 0 0,0
19.02.2019 04:00:00 2,7 1,3 2 1 7 4 E 1020,8 7 0 0,0
19.02.2019 03:00:00 3,8 2,3 4 2 8 4 SSE 1020,6 7 0 0,0
19.02.2019 02:00:00 4,2 2,5 5 3 9 5 ENE 1020,5 10 0 0,0
19.02.2019 01:00:00 4,1 2,5 6 3 10 5 N 1020,2 10 0 -
19.02.2019 00:00:00 5,3 3,2 2 1 7 4 SE 1020,0 13 0 0,0
18.02.2019 23:00:00 6,1 3,2 5 3 6 3 S 1019,7 17 0 0,0
18.02.2019 22:00:00 6,7 3,4 3 2 7 4 N 1019,5 20 0 0,0
18.02.2019 21:00:00 7,9 3,4 3 2 8 4 NNW 1018,8 20 0 0,0
18.02.2019 20:00:00 10,9 3,9 6 3 12 7 SE 1018,0 20 0 0,0
18.02.2019 19:00:00 12,6 4,3 6 4 15 8 ESE 1017,4 20 23 -
18.02.2019 18:00:00 14,4 4,3 9 5 18 10 ESE 1017,0 20 55 0,0
18.02.2019 17:00:00 14,0 4,8 11 6 27 14 ESE 1017,1 20 42 0,0
18.02.2019 16:00:00 14,2 4,8 16 9 28 15 E 1017,1 20 60 0,0
18.02.2019 15:00:00 13,1 4,5 19 10 31 17 ESE 1017,6 20 44 0,0
18.02.2019 14:00:00 12,7 4,6 16 9 37 20 ESE 1018,3 20 3 0,0
18.02.2019 13:00:00 11,9 4,3 18 10 36 19 ESE 1019,1 20 9 -
18.02.2019 12:00:00 11,2 4,1 21 11 39 21 E 1019,6 20 60 0,0
18.02.2019 11:00:00 10,3 4,6 17 9 42 23 ESE 1019,7 20 58 0,0
18.02.2019 10:00:00 9,0 4,5 14 7 27 14 ESE 1019,6 20 50 0,0
18.02.2019 09:00:00 7,2 3,6 14 7 30 16 E 1019,4 20 3 0,0
18.02.2019 08:00:00 7,3 3,4 14 7 33 18 SE 1018,6 20 0 0,0
18.02.2019 07:00:00 7,2 2,7 13 7 27 15 ESE 1018,5 20 0 -
18.02.2019 06:00:00 7,1 2,3 16 9 32 17 ESE 1018,4 20 0 0,0
18.02.2019 05:00:00 6,5 1,3 14 7 26 14 ESE 1018,2 20 0 0,0
18.02.2019 04:00:00 5,0 0,6 9 5 18 10 E 1018,8 20 0 0,0
18.02.2019 03:00:00 5,8 0,9 10 5 16 9 ESE 1018,8 20 0 0,0
18.02.2019 02:00:00 6,1 1,3 9 5 14 8 ENE 1018,9 20 0 0,0
18.02.2019 01:00:00 6,4 1,3 10 5 16 9 ENE 1019,1 20 0 -
18.02.2019 00:00:00 7,1 1,5 10 6 14 7 NE 1019,2 20 0 0,0
17.02.2019 23:00:00 9,9 1,1 9 5 16 8 ESE 1019,0 20 0 0,0
17.02.2019 22:00:00 9,5 2,1 8 5 14 8 ESE 1018,9 20 0 0,0
17.02.2019 21:00:00 8,9 1,5 7 4 11 6 ESE 1019,3 20 0 0,0
17.02.2019 20:00:00 10,5 1,3 5 3 8 5 ESE 1019,2 20 0 0,0
17.02.2019 19:00:00 13,5 0,9 5 3 8 5 E 1018,7 20 16 -
17.02.2019 18:00:00 16,0 0,2 7 4 19 10 ESE 1018,3 20 56 0,0
17.02.2019 17:00:00 17,2 0,0 11 6 23 12 ESE 1018,6 20 60 0,0
17.02.2019 16:00:00 16,6 -0,3 12 6 23 12 E 1019,2 20 60 0,0
17.02.2019 15:00:00 15,9 -0,5 10 5 23 12 E 1020,4 20 60 0,0
17.02.2019 14:00:00 14,7 -2,7 14 8 30 16 E 1021,5 20 60 0,0
17.02.2019 13:00:00 13,4 -3,0 14 8 31 17 E 1022,8 20 60 -
17.02.2019 12:00:00 11,6 -5,1 17 9 35 19 E 1024,0 20 60 0,0
17.02.2019 11:00:00 9,5 -4,5 17 9 31 17 E 1024,6 20 60 0,0
17.02.2019 10:00:00 7,6 -2,5 10 5 19 10 E 1025,2 20 60 0,0
17.02.2019 09:00:00 4,6 -2,7 10 5 16 9 E 1025,5 20 28 0,0
17.02.2019 08:00:00 4,0 -2,7 9 5 19 10 ENE 1025,2 20 0 0,0
17.02.2019 07:00:00 4,6 -2,0 9 5 16 9 ENE 1024,9 20 0 -
17.02.2019 06:00:00 5,0 -1,2 8 5 14 7 ENE 1024,8 20 0 0,0
17.02.2019 05:00:00 5,7 -0,5 9 5 18 10 NE 1024,2 20 0 0,0
17.02.2019 04:00:00 7,2 -0,3 8 4 25 13 ENE 1024,2 20 0 0,0
17.02.2019 03:00:00 8,8 0,4 16 8 27 15 ESE 1023,9 20 0 0,0
17.02.2019 02:00:00 9,0 0,4 12 6 24 13 SE 1023,7 20 0 0,0
17.02.2019 01:00:00 7,2 0,4 9 5 16 8 SE 1023,9 20 0 -
17.02.2019 00:00:00 6,9 1,3 8 4 14 8 ENE 1024,4 20 0 0,0
16.02.2019 23:00:00 9,5 1,5 8 4 16 9 ESE 1023,8 20 0 0,0
16.02.2019 22:00:00 9,1 1,7 6 3 9 5 SSE 1023,7 20 0 0,0

tt = temperature
td = dewpoint
ff = wind speed
fx = gusts
dd = wind direction
ppp = reduced air pressure
vv = visibility
sd = sunshine duration
rr = precipitation

Next stations